FW1419 Weather Reports


Display with metric or nautical units.
time (UTC)temp
F
wind
direction
speed
MPH
gust
MPH
rain 1hr
in
rain 24hr
in
rain mn
in
humidity
%
barometer
mb
20260506082319 51 220 0.0 0.0 0.00 0.14 0.00 81 1018.0
20260506081851 52 220 0.0 0.0 0.00 0.14 0.00 81 1018.0
20260506081322 52 220 0.0 0.0 0.00 0.14 0.00 79 1018.0
20260506080812 52 220 0.0 0.0 0.00 0.14 0.00 79 1018.1
20260506080324 52 220 0.0 0.0 0.00 0.14 0.00 79 1018.1
20260506073316 53 220 0.0 0.0 0.00 0.21 0.00 78 1018.3
20260506072828 53 220 0.0 0.0 0.00 0.21 0.00 77 1018.3
20260506072319 53 220 0.0 0.0 0.00 0.21 0.00 77 1018.3
20260506071829 53 220 0.0 0.0 0.00 0.21 0.00 77 1018.2
20260506071320 53 220 0.0 0.0 0.00 0.21 0.00 77 1018.2
20260506070831 53 220 0.0 0.0 0.00 0.21 0.00 76 1018.2
20260506070327 53 220 0.0 0.0 0.00 0.21 0.00 76 1018.2
20260506062318 53 242 0.0 0.0 0.00 0.21 0.21 73 1017.8
20260506061829 53 224 0.0 0.0 0.00 0.21 0.21 73 1017.9
20260506061320 53 212 0.0 0.0 0.00 0.21 0.21 74 1017.9
20260506060812 53 212 0.0 0.0 0.00 0.21 0.21 74 1017.8
20260506060323 53 212 0.0 0.0 0.00 0.21 0.21 75 1017.8
20260506051320 55 217 1.0 2.0 0.00 0.21 0.21 74 1017.2
20260506050851 55 234 0.0 2.0 0.00 0.21 0.21 74 1017.2
20260506050320 55 233 0.0 3.0 0.00 0.21 0.21 73 1017.2
20260506044840 55 229 0.0 3.0 0.00 0.21 0.21 72 1017.1
20260506044331 55 240 0.0 2.0 0.00 0.21 0.21 72 1016.9
20260506043823 55 224 0.0 2.0 0.00 0.21 0.21 72 1016.9
20260506043335 55 206 0.0 2.0 0.00 0.21 0.21 71 1016.9
20260506042824 55 217 0.0 1.0 0.00 0.21 0.21 71 1016.8
20260506042315 55 202 0.0 1.0 0.00 0.21 0.21 70 1016.8
20260506041827 55 228 0.0 3.0 0.00 0.21 0.21 70 1016.6
20260506041318 56 228 1.0 3.0 0.00 0.21 0.21 70 1016.5
20260506040851 56 219 1.0 4.0 0.00 0.21 0.21 70 1016.5
20260506040320 56 224 2.0 4.0 0.00 0.21 0.21 70 1016.3
20260506035831 56 224 0.0 1.0 0.00 0.21 0.21 70 1016.2
20260506035326 56 150 0.0 1.0 0.00 0.21 0.21 70 1016.2
20260506034816 56 269 0.0 1.0 0.00 0.21 0.21 69 1016.1
20260506034328 56 188 0.0 2.0 0.00 0.21 0.21 69 1016.2
20260506033820 56 160 0.0 4.0 0.00 0.21 0.21 69 1016.1
20260506033330 56 167 1.0 4.0 0.00 0.21 0.21 68 1016.1
20260506032822 56 168 1.0 3.0 0.00 0.21 0.21 68 1015.9
20260506032312 56 123 0.0 2.0 0.00 0.21 0.21 68 1015.9
20260506031825 56 201 1.0 3.0 0.00 0.21 0.21 68 1015.9
20260506031320 56 138 0.0 0.0 0.00 0.21 0.21 68 1015.8
20260506030811 56 192 0.0 5.0 0.00 0.21 0.21 68 1015.8
20260506030323 56 147 1.0 5.0 0.00 0.21 0.21 67 1015.7
20260506025813 57 172 1.0 7.0 0.00 0.21 0.21 67 1015.5
20260506025324 57 212 2.0 7.0 0.00 0.21 0.21 66 1015.4
20260506024814 57 224 2.0 7.0 0.00 0.21 0.21 66 1015.3
20260506024326 57 212 3.0 7.0 0.00 0.21 0.21 66 1015.2
20260506023816 57 233 1.0 5.0 0.00 0.21 0.21 66 1015.1
20260506023328 57 186 0.0 7.0 0.00 0.21 0.21 66 1015.1
20260506022839 57 234 2.0 8.0 0.00 0.21 0.21 66 1015.0
20260506022313 57 216 3.0 8.0 0.00 0.21 0.21 65 1014.9
20260506021846 57 223 0.0 5.0 0.00 0.21 0.21 66 1014.9
20260506021316 57 211 2.0 8.0 0.00 0.21 0.21 65 1014.8
20260506020828 58 214 5.0 8.0 0.00 0.21 0.21 65 1014.7
20260506020318 58 236 2.0 8.0 0.00 0.21 0.21 65 1014.7
20260506015829 58 230 4.0 9.0 0.00 0.21 0.21 64 1014.6
20260506015320 58 225 6.0 12.0 0.00 0.21 0.21 64 1014.6
20260506014852 58 215 5.0 12.0 0.00 0.21 0.21 64 1014.4
20260506014321 58 224 5.0 12.0 0.00 0.21 0.21 64 1014.4
20260506013812 58 220 5.0 12.0 0.00 0.21 0.21 63 1014.4
20260506013323 58 195 5.0 9.0 0.00 0.21 0.21 62 1014.2
20260506012818 58 192 3.0 10.0 0.00 0.21 0.21 62 1014.1
20260506012329 59 240 4.0 10.0 0.00 0.21 0.21 62 1014.1
20260506011820 59 193 5.0 9.0 0.00 0.21 0.21 62 1014.0
20260506011330 59 225 5.0 10.0 0.00 0.21 0.21 62 1014.1
20260506010821 59 188 4.0 10.0 0.00 0.21 0.21 62 1014.0
20260506010311 59 172 4.0 9.0 0.00 0.21 0.21 61 1014.0
20260506005822 59 229 4.0 12.0 0.00 0.21 0.21 61 1014.0
20260506005314 59 216 4.0 11.0 0.00 0.21 0.21 60 1014.0
20260506004827 59 195 7.0 11.0 0.00 0.21 0.21 59 1013.9
20260506004318 60 160 5.0 13.0 0.00 0.21 0.21 58 1013.9
20260506003827 60 215 8.0 13.0 0.00 0.21 0.21 57 1013.9
20260506003322 60 214 3.0 13.0 0.00 0.21 0.21 57 1013.9
20260506002834 61 215 7.0 13.0 0.00 0.21 0.21 55 1013.8
20260506002324 61 278 4.0 10.0 0.00 0.21 0.21 56 1013.8
20260506001816 61 203 4.0 10.0 0.00 0.21 0.21 54 1013.8
20260506001327 61 224 5.0 9.0 0.00 0.21 0.21 54 1013.7
20260506000818 61 200 2.0 11.0 0.00 0.21 0.21 54 1013.8
20260506000330 61 229 4.0 11.0 0.00 0.21 0.21 54 1013.8
20260505235842 62 222 4.0 10.0 0.00 0.21 0.21 54 1013.8
20260505235312 62 198 5.0 10.0 0.00 0.21 0.21 54 1013.7
20260505234828 62 203 5.0 11.0 0.00 0.21 0.21 53 1013.7
20260505234319 63 198 5.0 11.0 0.00 0.21 0.21 52 1013.7
20260505233831 63 195 3.0 12.0 0.00 0.21 0.21 53 1013.6
20260505233341 63 241 7.0 12.0 0.00 0.21 0.21 52 1013.6
20260505232813 63 232 4.0 10.0 0.00 0.21 0.21 52 1013.5
20260505232324 63 214 3.0 9.0 0.00 0.21 0.21 54 1013.5
20260505231816 63 217 4.0 9.0 0.00 0.21 0.21 52 1013.7
20260505231347 63 223 3.0 10.0 0.00 0.21 0.21 55 1013.7
20260505230818 63 214 5.0 10.0 0.00 0.21 0.21 55 1013.7
20260505230312 63 171 4.0 9.0 0.00 0.21 0.21 55 1013.7
20260505225844 62 272 2.0 8.0 0.00 0.21 0.21 57 1013.8
20260505225313 62 235 2.0 9.0 0.00 0.21 0.21 54 1013.8
20260505224825 62 229 3.0 9.0 0.00 0.21 0.21 54 1013.8
20260505224336 62 238 0.0 7.0 0.00 0.21 0.21 55 1013.8
20260505223846 62 202 3.0 8.0 0.00 0.21 0.21 54 1014.0
20260505223317 62 211 4.0 8.0 0.00 0.21 0.21 54 1013.9
20260505222829 63 275 2.0 6.0 0.00 0.21 0.21 57 1014.0
20260505222320 62 186 1.0 3.0 0.00 0.21 0.21 57 1014.0
20260505221834 61 231 0.0 6.0 0.00 0.21 0.21 58 1014.1
20260505221324 61 241 3.0 6.0 0.00 0.21 0.21 57 1014.2
20260505220835 61 256 0.0 2.0 0.00 0.21 0.21 59 1014.2
20260505220330 61 250 1.0 6.0 0.00 0.21 0.21 60 1014.3
20260505215820 61 260 0.0 6.0 0.00 0.21 0.21 59 1014.4
20260505215311 61 246 1.0 4.0 0.00 0.21 0.21 61 1014.4
20260505214843 60 278 3.0 4.0 0.00 0.21 0.21 59 1014.4
20260505214312 60 250 0.0 3.0 0.00 0.21 0.21 60 1014.4
20260505213823 60 272 1.0 3.0 0.00 0.21 0.21 60 1014.5
20260505213315 60 217 1.0 2.0 0.00 0.21 0.21 60 1014.5
20260505212826 60 274 0.0 3.0 0.00 0.21 0.21 60 1014.4
20260505212317 60 299 1.0 3.0 0.00 0.21 0.21 60 1014.6
20260505211813 60 300 1.0 2.0 0.00 0.21 0.21 60 1014.6
20260505211325 60 68 0.0 2.0 0.00 0.21 0.21 60 1014.6
20260505210815 60 310 0.0 3.0 0.00 0.21 0.21 61 1014.6
20260505210348 60 310 1.0 4.0 0.00 0.21 0.21 61 1014.7
20260505205816 60 26 0.0 4.0 0.00 0.21 0.21 62 1014.6
20260505205328 60 32 1.0 5.0 0.00 0.21 0.21 61 1014.6
20260505204819 60 48 1.0 5.0 0.00 0.21 0.21 63 1014.6
20260505204330 60 83 1.0 5.0 0.00 0.21 0.21 64 1014.6
20260505203820 60 51 1.0 5.0 0.00 0.21 0.21 64 1014.6
20260505203312 60 308 1.0 5.0 0.00 0.21 0.21 65 1014.7
20260505202826 60 37 2.0 5.0 0.00 0.21 0.21 65 1014.6
20260505202317 59 39 1.0 3.0 0.00 0.21 0.21 67 1014.7
20260505201829 59 53 0.0 3.0 0.00 0.21 0.21 68 1014.8
20260505201320 58 40 0.0 8.0 0.00 0.21 0.21 68 1014.8
20260505200851 58 353 4.0 8.0 0.00 0.21 0.21 66 1014.9
20260505200322 58 292 3.0 6.0 0.00 0.21 0.21 68 1014.9
20260505195813 59 278 3.0 5.0 0.00 0.21 0.21 68 1014.9
20260505195325 59 318 2.0 5.0 0.00 0.21 0.21 68 1014.9
20260505194815 59 305 1.0 8.0 0.00 0.21 0.21 70 1014.8
20260505194312 59 11 3.0 8.0 0.00 0.21 0.21 69 1015.0
20260505193823 59 256 2.0 5.0 0.00 0.21 0.21 69 1015.1
20260505193314 59 229 2.0 5.0 0.00 0.21 0.21 68 1015.0
20260505192826 59 20 0.0 2.0 0.00 0.21 0.21 68 1015.1
20260505192317 59 103 0.0 3.0 0.00 0.21 0.21 68 1015.1
20260505191829 59 139 0.0 4.0 0.00 0.21 0.21 70 1015.2
20260505191320 59 32 2.0 6.0 0.00 0.21 0.21 71 1015.1
20260505190812 58 48 3.0 6.0 0.00 0.21 0.21 71 1015.1
20260505190327 58 48 2.0 4.0 0.00 0.21 0.21 72 1015.2
20260505185837 58 88 0.0 3.0 0.00 0.21 0.21 72 1015.1
20260505185327 58 113 0.0 7.0 0.00 0.21 0.21 73 1015.3
20260505184817 57 143 1.0 7.0 0.00 0.21 0.21 76 1015.1
20260505184329 57 68 1.0 7.0 0.00 0.21 0.21 76 1015.2
20260505183820 57 84 2.0 7.0 0.00 0.21 0.21 80 1015.2
20260505183311 56 78 2.0 5.0 0.00 0.21 0.21 80 1015.3
20260505182822 56 70 1.0 3.0 0.00 0.21 0.21 83 1015.4
20260505182312 56 108 1.0 4.0 0.00 0.21 0.21 84 1015.4
20260505181824 55 138 1.0 4.0 0.00 0.21 0.21 84 1015.3
20260505181335 55 77 2.0 4.0 0.00 0.21 0.21 85 1015.3
20260505180825 55 108 1.0 4.0 0.00 0.21 0.21 86 1015.4
20260505180320 55 93 1.0 4.0 0.00 0.21 0.21 87 1015.4
20260505175811 55 115 1.0 4.0 0.00 0.21 0.21 87 1015.3
20260505175341 55 77 1.0 4.0 0.00 0.21 0.21 89 1015.4
20260505174831 54 123 1.0 4.0 0.00 0.21 0.21 90 1015.2
20260505174322 54 75 1.0 4.0 0.00 0.21 0.21 89 1015.2
20260505173814 54 120 0.0 4.0 0.00 0.21 0.21 90 1015.2
20260505173326 53 85 1.0 4.0 0.00 0.21 0.21 90 1015.1
20260505172816 53 115 0.0 3.0 0.00 0.21 0.21 91 1015.0
20260505172347 53 94 0.0 3.0 0.00 0.21 0.21 92 1015.0
20260505171838 53 118 0.0 2.0 0.00 0.21 0.21 92 1014.9
20260505171348 53 118 0.0 0.0 0.00 0.21 0.21 92 1014.9
20260505170818 53 132 0.0 0.0 0.01 0.21 0.21 92 1014.8
20260505170313 53 132 0.0 0.0 0.01 0.21 0.21 92 1014.9
20260505165825 53 132 0.0 0.0 0.01 0.21 0.21 92 1014.9
20260505165315 53 132 0.0 1.0 0.01 0.21 0.21 92 1014.8
20260505164826 53 132 0.0 1.0 0.01 0.21 0.21 92 1014.8
20260505164318 53 226 0.0 0.0 0.01 0.21 0.21 92 1014.7
20260505163850 53 158 0.0 0.0 0.01 0.21 0.21 93 1014.6
20260505163320 53 212 0.0 0.0 0.01 0.21 0.21 93 1014.6
20260505162811 52 212 0.0 0.0 0.02 0.21 0.21 93 1014.6
20260505162323 52 212 0.0 0.0 0.03 0.21 0.21 93 1014.5
20260505161839 52 212 0.0 0.0 0.03 0.21 0.21 93 1014.4
20260505161349 52 212 0.0 0.0 0.03 0.21 0.21 93 1014.4
20260505160819 52 212 0.0 0.0 0.02 0.20 0.20 93 1014.3
20260505160331 52 230 0.0 0.0 0.02 0.20 0.20 93 1014.3
20260505153312 51 302 2.0 7.0 0.02 0.20 0.20 92 1014.2
20260505152822 52 293 4.0 7.0 0.01 0.19 0.19 92 1014.0
20260505152315 52 306 0.0 0.0 0.00 0.18 0.18 93 1013.9
20260505151846 52 107 0.0 0.0 0.00 0.18 0.18 94 1013.9
20260505151319 52 107 0.0 0.0 0.01 0.18 0.18 94 1013.9
20260505150811 52 107 0.0 0.0 0.02 0.18 0.18 94 1013.9
20260505150323 52 107 0.0 0.0 0.02 0.18 0.18 94 1013.9
20260505140322 51 107 0.0 0.0 0.01 0.16 0.16 94 1013.5
20260505124815 50 107 0.0 0.0 0.01 0.12 0.12 93 1013.0
20260505124346 50 107 0.0 0.0 0.01 0.12 0.12 93 1013.0
20260505123815 50 121 0.0 0.0 0.01 0.12 0.12 93 1013.0
20260505123328 50 121 0.0 0.0 0.01 0.12 0.12 93 1013.0
20260505122819 50 129 0.0 0.0 0.01 0.12 0.12 93 1013.1
20260505122311 50 129 0.0 0.0 0.01 0.12 0.12 93 1013.1
20260505121842 50 129 0.0 0.0 0.01 0.12 0.12 93 1013.1
20260505121311 50 129 0.0 0.0 0.01 0.12 0.12 93 1013.0
20260505120822 50 130 0.0 0.0 0.01 0.12 0.12 93 1013.1
20260505120317 50 130 0.0 0.0 0.01 0.12 0.12 93 1013.1
20260505115829 50 130 0.0 0.0 0.01 0.12 0.12 93 1013.2
20260505115320 51 130 0.0 0.0 0.00 0.11 0.11 93 1013.2
20260505114812 51 130 0.0 0.0 0.00 0.11 0.11 93 1013.2
20260505114324 51 130 0.0 0.0 0.00 0.11 0.11 93 1013.1
20260505113817 50 130 0.0 0.0 0.00 0.11 0.11 93 1013.3
20260505113328 50 130 0.0 0.0 0.00 0.11 0.11 93 1013.2
20260505112820 50 130 0.0 0.0 0.00 0.11 0.11 93 1013.2
20260505112314 50 130 0.0 0.0 0.00 0.11 0.11 93 1013.2
20260505111825 50 130 0.0 0.0 0.00 0.11 0.11 93 1013.2
20260505111317 50 130 0.0 0.0 0.00 0.11 0.11 93 1013.3
20260505110829 50 130 0.0 0.0 0.00 0.11 0.11 93 1013.2
20260505110319 50 130 0.0 0.0 0.00 0.11 0.11 93 1013.2
20260505101822 50 94 0.0 0.0 0.00 0.11 0.11 93 1013.3
20260505101314 50 94 0.0 0.0 0.00 0.11 0.11 92 1013.3
20260505100825 50 94 0.0 0.0 0.00 0.11 0.11 93 1013.4
20260505100317 50 94 0.0 0.0 0.01 0.11 0.11 92 1013.5
20260505095849 50 94 0.0 0.0 0.01 0.11 0.11 92 1013.5
20260505095318 50 94 0.0 0.0 0.02 0.11 0.11 92 1013.5
20260505094833 50 94 0.0 0.0 0.03 0.11 0.11 92 1013.5
20260505094322 50 94 0.0 0.0 0.03 0.11 0.11 92 1013.6
20260505093834 51 86 0.0 0.0 0.03 0.11 0.11 92 1013.7
20260505093325 51 86 0.0 0.0 0.03 0.11 0.11 92 1013.7
20260505092815 51 86 0.0 0.0 0.03 0.11 0.11 92 1013.7
20260505092326 51 77 0.0 0.0 0.03 0.11 0.11 92 1013.8
20260505091817 51 48 0.0 0.0 0.03 0.11 0.11 92 1013.9
20260505091329 51 32 0.0 0.0 0.03 0.11 0.11 92 1014.0
20260505090819 51 20 0.0 0.0 0.03 0.11 0.11 92 1014.1
20260505090331 51 15 0.0 0.0 0.03 0.10 0.10 92 1014.1
20260505085817 51 15 0.0 0.0 0.03 0.10 0.10 91 1014.4
20260505085312 51 8 0.0 0.0 0.02 0.09 0.09 92 1014.3
20260505084824 51 285 0.0 0.0 0.01 0.08 0.08 91 1014.4
20260505084314 51 285 0.0 0.0 0.02 0.08 0.08 91 1014.5
20260505083825 51 285 0.0 0.0 0.02 0.08 0.08 91 1014.5
20260505083316 51 285 0.0 0.0 0.04 0.08 0.08 91 1014.5
20260505082828 52 285 0.0 0.0 0.06 0.08 0.08 91 1014.5